This demonstration page uses our WeatherBlox Daily Observations layout. Learn more.

Left ArrowRight Arrow

38.80484, -77.04692

Hourly Observations for May 19, 2015

Temp ( °F °C ) Dew Point ( °F °C ) Humidity (%) Winds ( mph kmh ) Pressure ( in mb ) Visibility ( mi km ) Precip ( " mm )
12:36 am 00:36 Cloudy 73 23 70 21 89 89 SE 5 7 30.03 1017 10 16 0.02 0.51
12:52 am 00:52 Cloudy 73 22.8 68 20 84 84 N N/A 30.02 1017 10 16 0.02 0.51
1:06 am 01:06 Cloudy 73 23 68 20 83 83 N N/A 30.03 1017 10 16 N/A
1:52 am 01:52 Cloudy 73 22.8 68 20 84 84 NE 6 9 30.01 1016 10 16 N/A
2:31 am 02:31 Cloudy 73 23 68 20 83 83 NNE 3 6 30.00 1016 10 16 N/A
2:52 am 02:52 Cloudy 73 22.8 68 20 84 84 N N/A 29.98 1015 10 16 N/A
2:59 am 02:59 Cloudy 72 22 68 20 88 88 N N/A 30.00 1016 10 16 N/A
3:38 am 03:38 Cloudy 73 23 68 20 83 83 N N/A 29.97 1015 10 16 N/A
3:52 am 03:52 Cloudy 73 22.8 68 20 84 84 W 3 6 29.98 1015 10 16 N/A
4:41 am 04:41 Cloudy 72 22 66 19 83 83 N N/A 29.97 1015 10 16 N/A
4:52 am 04:52 Cloudy 72 22.2 67 19.4 84 84 N N/A 29.96 1015 10 16 N/A
5:52 am 05:52 Cloudy 73 22.8 68 20 84 84 NNW 7 11 29.97 1015 10 16 N/A
6:42 am 06:42 Cloudy 72 22 66 19 83 83 NNW 5 7 29.97 1015 10 16 N/A
6:52 am 06:52 Mostly Cloudy 73 22.8 68 20 84 84 N N/A 29.97 1015 10 16 N/A
7:52 am 07:52 Mostly Cloudy 75 23.9 68 20 79 79 WSW 3 6 29.96 1015 10 16 N/A
8:52 am 08:52 Mostly Cloudy 78 25.6 69 20.6 74 74 W 6 9 29.96 1015 10 16 N/A
9:52 am 09:52 Mostly Cloudy 80 26.7 69 20.6 69 69 VRB 3 6 29.96 1015 10 16 N/A
10:52 am 10:52 Mostly Cloudy 81 27.2 67 19.4 62 62 NNW 9 15 29.96 1015 10 16 N/A
11:52 am 11:52 Mostly Cloudy 84 28.9 67 19.4 57 57 NNW 12 19 29.95 1014 10 16 N/A
12:52 pm 12:52 Mostly Cloudy 85 29.4 67 19.4 55 55 VRB 5 7 29.93 1014 10 16 N/A
1:52 pm 13:52 Mostly Cloudy 86 30 65 18.3 49 49 WNW 9 15 29.91 1013 10 16 N/A
2:52 pm 14:52 Mostly Cloudy 89 31.7 63 17.2 42 42 WNW 13 20 29.90 1013 10 16 N/A
3:52 pm 15:52 Mostly Cloudy 87 30.6 62 16.7 43 43 W 7 11 29.87 1012 10 16 N/A
4:52 pm 16:52 Mostly Cloudy 89 31.7 64 17.8 43 43 N 9 15 29.85 1011 10 16 N/A
5:52 pm 17:52 Mostly Cloudy 89 31.7 64 17.8 43 43 NNW 6 9 29.84 1010 10 16 N/A
6:52 pm 18:52 Mostly Cloudy 88 31.1 60 15.6 39 39 NW 8 13 29.83 1010 10 16 N/A
7:52 pm 19:52 Partly Cloudy 86 30 58 14.4 39 39 NW 9 15 29.84 1011 10 16 N/A
8:52 pm 20:52 Partly Cloudy 85 29.4 57 13.9 39 39 WNW 6 9 29.86 1011 10 16 N/A
9:52 pm 21:52 Partly Cloudy 84 28.9 56 13.3 38 38 NW 5 7 29.87 1012 10 16 N/A
10:52 pm 22:52 Mostly Clear 81 27.2 56 13.3 42 42 WNW 8 13 29.88 1012 10 16 N/A
11:52 pm 23:52 Clear 79 26.1 55 12.8 44 44 WNW 5 7 29.88 1012 10 16 N/A

Powered by AerisWeather